Wind_Speed
16 16 15 15 15 14 15 15 14 15 15 16 15 15 15 15 15 15 15 15 16 16 16 16 16 16 16 16 15 15 15 15 15 15 16 15 15 15 14 14 14 14 14
15 16 16 15 15 15 15 16 16 16 15 16 16 16 16 16 15 15 16 16 16 17 17 17 17 17 17 17 17 17 17 16 16 16 16 16 15 15 14 14 14 14 14
15 15 15 15 14 15 15 15 15 16 16 16 17 17 17 17 17 16 16 16 17 17 17 18 18 18 18 18 17 18 17 18 18 17 16 16 17 16 16 15 15 14 14
15 15 14 13 13 13 14 15 15 15 16 16 16 17 16 17 17 17 17 17 17 18 18 18 18 19 20 20 20 20 19 19 18 18 17 17 17 16 16 16 16 15 15
16 15 14 13 13 14 14 15 15 15 15 16 16 16 16 17 17 17 18 18 19 19 19 19 19 19 20 20 19 20 20 20 19 19 19 18 18 18 18 17 16 16 15
14 14 13 14 14 14 15 15 15 16 16 17 17 17 17 17 18 18 19 19 19 20 20 20 20 20 20 20 20 20 20 20 20 20 20 20 19 19 18 17 16 16 16
13 14 14 14 14 14 15 15 15 16 16 17 18 18 18 19 19 19 19 19 19 19 19 20 20 20 20 20 20 20 20 20 20 20 20 20 19 19 18 18 17 17 17
14 14 15 15 14 14 15 15 16 17 17 18 18 19 19 20 20 20 20 20 20 20 20 20 20 20 20 20 20 20 20 20 19 19 19 19 19 19 19 18 18 18 18
14 15 15 15 15 15 16 16 17 18 18 18 19 20 21 21 21 21 21 21 21 21 21 20 20 20 20 20 20 20 20 19 20 20 19 19 19 20 20 20 20 19 19
15 15 16 16 16 16 17 18 18 19 19 19 20 21 22 22 22 22 22 22 21 21 21 20 20 20 20 20 19 19 19 19 19 20 20 20 20 19 20 20 21 20 20
16 16 16 16 17 17 18 19 19 20 20 21 21 21 22 22 23 23 23 23 22 21 20 20 20 19 19 19 19 19 19 19 19 20 20 20 20 20 20 20 21 21 21
16 17 16 17 17 18 19 19 20 21 21 22 22 22 22 23 23 23 23 22 22 21 21 20 20 19 19 19 19 19 19 19 19 19 20 20 20 21 21 21 21 21 22
17 17 17 17 18 19 20 20 21 22 22 22 22 22 22 23 22 22 21 20 20 20 20 20 19 19 19 19 18 18 18 19 19 20 20 21 21 21 22 22 22 22 22
18 18 18 18 19 19 20 21 22 22 23 23 22 22 22 22 22 21 20 19 19 19 19 19 19 19 19 19 18 18 19 20 20 20 21 21 21 22 22 23 23 23 23
19 18 19 19 20 20 21 22 23 23 24 23 22 22 22 21 21 21 21 20 19 19 19 19 19 19 19 20 19 19 20 20 20 20 21 22 22 22 23 23 24 24 24
20 20 20 21 21 22 22 22 23 23 24 23 23 22 21 21 21 21 21 20 20 20 20 20 20 20 20 21 21 21 21 21 21 21 22 22 22 23 23 24 24 25 25
21 21 21 22 22 23 23 23 22 23 23 23 23 22 22 22 22 22 22 21 21 21 20 21 21 21 21 22 22 22 23 23 23 23 23 23 23 24 25 25 25 25 26
23 23 23 23 23 23 23 23 23 23 23 23 23 23 22 22 22 22 22 22 22 22 22 22 23 23 22 23 23 23 24 24 24 24 24 25 25 26 26 26 27 27 27
24 24 24 24 24 24 24 24 24 24 24 23 23 23 23 23 23 23 23 23 23 24 24 25 24 25 24 24 24 24 24 25 26 26 26 26 26 27 27 27 27 27 28
24 24 25 25 25 25 25 25 24 24 23 24 24 24 23 23 24 24 24 24 25 25 25 25 25 25 25 25 26 26 25 25 26 27 28 28 29 29 29 29 29 29 29
25 25 25 25 25 26 25 25 24 24 24 24 24 25 25 25 24 25 25 26 26 26 26 26 26 26 26 27 27 28 28 28 28 28 28 29 30 30 30 30 31 30 30
25 25 25 26 25 25 25 25 25 25 25 25 25 25 25 26 26 26 26 27 27 27 27 28 27 27 28 28 29 29 29 29 30 29 29 29 30 30 30 31 31 32 32
26 26 26 26 26 26 26 26 26 26 26 26 26 26 26 26 27 27 27 27 28 28 28 28 29 29 29 29 29 29 29 30 31 31 31 31 30 30 31 31 31 32 33
27 26 26 27 27 27 27 27 27 27 27 27 27 26 26 27 27 27 27 27 28 28 29 29 29 29 30 29 29 30 30 30 31 31 32 32 32 31 31 31 32 32 32
27 26 27 26 26 27 27 27 27 28 28 27 26 26 27 27 27 27 27 28 29 30 29 29 29 30 30 30 31 31 31 32 32 32 32 32 32 31 31 32 32 32 32
27 27 27 27 27 28 27 27 28 28 27 27 27 27 27 27 27 27 28 28 29 30 30 30 31 31 31 32 32 32 32 32 32 32 32 33 33 33 32 32 32 32 32
Wind_Direction
276 278 276 278 279 281 282 284 285 287 287 287 287 286 284 284 279 280 280 277 274 273 273 273 272 272 272 273 273 272 271 271 272 270 269 269 270 271 272 270 267 266 266
276 277 276 277 278 279 280 281 283 284 284 284 284 285 286 286 286 285 282 280 276 274 275 275 273 273 274 273 271 270 271 271 270 269 267 268 268 268 270 269 267 265 264
276 276 276 276 277 279 279 280 282 283 282 283 284 284 286 284 285 288 287 284 282 278 275 274 274 274 273 272 272 271 271 271 270 269 267 268 268 267 269 268 266 264 264
280 278 276 277 278 280 281 281 283 282 281 283 284 283 283 284 283 285 287 287 284 282 278 277 275 274 273 272 271 270 270 270 269 268 266 267 267 268 269 265 265 264 265
281 281 280 280 277 279 280 281 282 283 283 285 285 284 283 282 281 282 284 285 285 284 283 279 277 275 272 271 271 269 268 268 266 265 263 264 265 266 266 266 264 264 265
282 282 281 279 277 280 280 282 283 284 285 285 284 283 281 282 283 283 284 284 282 281 281 281 278 275 272 271 270 268 266 266 266 265 263 264 265 266 265 265 265 265 266
281 282 281 281 280 280 282 283 283 285 286 285 284 283 282 281 282 282 283 283 282 281 279 278 278 275 272 271 270 268 267 267 267 266 264 264 265 264 263 261 263 265 266
283 280 280 281 281 282 282 283 285 287 288 288 286 284 284 284 283 283 283 282 281 281 279 278 277 275 274 272 270 269 267 265 266 266 265 265 264 262 261 262 263 266 267
286 282 283 282 281 282 283 284 286 288 289 289 288 287 285 284 283 284 285 284 284 282 281 278 276 275 276 275 272 269 267 265 263 263 263 264 263 261 261 261 263 266 267
288 285 284 284 284 283 284 286 286 287 289 290 289 288 286 284 284 283 284 286 285 283 282 279 277 277 277 276 274 270 265 264 262 261 261 261 262 262 260 261 262 264 266
290 286 286 286 287 287 286 286 288 289 289 290 291 289 287 286 286 284 284 284 282 281 279 278 276 276 275 275 274 270 266 264 262 262 261 261 263 261 260 261 261 262 264
291 290 289 287 287 288 288 289 291 291 290 290 290 288 287 287 286 286 284 281 280 277 276 276 274 273 273 273 272 270 266 265 265 266 265 264 265 263 262 262 262 262 264
291 291 290 289 289 290 290 291 292 293 292 292 290 287 286 286 286 285 283 279 279 279 277 275 272 270 271 272 271 271 269 268 268 266 265 264 265 264 263 263 263 264 266
290 291 290 290 290 291 291 292 293 292 293 294 291 287 285 285 284 283 283 280 279 279 279 276 272 270 271 270 270 271 271 271 270 268 265 264 267 268 266 264 264 265 265
290 291 293 292 292 292 292 291 291 291 291 292 290 288 286 284 281 279 280 279 278 277 277 276 276 274 272 272 272 273 272 272 271 270 267 267 268 268 268 267 265 265 265
289 292 294 294 293 293 293 292 291 291 291 292 291 291 288 284 281 278 277 277 277 278 278 278 277 277 276 274 271 272 272 272 273 273 271 271 270 270 271 270 268 268 267
288 290 292 294 295 295 294 293 292 292 292 293 291 289 288 284 281 279 277 277 277 278 279 279 278 276 276 274 272 272 272 272 272 273 273 273 272 273 272 271 270 269 269
288 289 291 293 294 295 295 294 293 292 291 291 291 290 288 285 281 279 278 277 277 278 279 279 277 275 274 274 273 273 271 270 271 271 272 272 272 272 272 272 271 269 268
288 290 291 292 293 294 295 294 293 292 290 289 288 289 288 285 283 280 278 277 276 276 277 277 276 276 275 274 274 275 274 271 272 272 272 273 273 272 272 272 271 270 268
288 289 290 291 293 293 294 293 293 292 291 289 288 287 285 285 282 280 278 277 276 276 276 276 277 276 276 275 274 273 272 272 272 272 273 273 273 272 272 272 271 270 268
287 287 288 290 292 293 294 293 292 291 291 290 289 287 285 284 283 281 279 278 278 277 276 276 276 276 275 274 275 273 272 272 272 273 273 273 274 273 272 272 271 269 269
287 287 287 289 290 291 291 291 292 292 291 290 290 289 286 284 283 282 280 279 279 278 277 276 275 276 276 275 275 275 275 274 272 272 273 273 274 273 272 272 272 270 269
286 286 287 287 288 289 289 289 290 290 289 289 289 288 287 287 285 282 280 279 279 278 277 277 276 276 276 276 277 277 276 274 273 272 272 273 274 274 273 273 272 271 270
285 285 286 286 286 287 287 288 290 291 290 289 289 289 289 289 289 286 282 280 279 279 278 277 277 277 277 276 277 278 276 275 274 272 273 273 274 274 273 273 272 272 272
285 284 285 286 286 287 286 287 289 290 290 289 288 288 289 290 290 288 286 283 281 279 279 278 277 278 278 278 277 277 277 276 275 274 274 273 274 274 273 273 273 273 271
284 286 287 288 287 287 287 287 288 288 288 288 288 288 289 290 290 288 286 286 284 282 280 279 278 278 278 278 278 278 278 278 276 275 275 274 273 273 273 273 273 272 271
Height
5827 5827 5828 5828 5828 5828 5828 5827 5826 5827 5827 5827 5826 5826 5826 5825 5825 5825 5824 5824 5824 5824 5824 5825 5825 5825 5825 5825 5826 5826 5826 5826 5827 5827 5828 5828 5828 5829 5829 5829 5830 5830 5830
5824 5824 5824 5824 5825 5825 5825 5824 5824 5824 5824 5823 5823 5822 5822 5822 5822 5821 5820 5820 5820 5820 5820 5820 5820 5821 5821 5821 5822 5822 5822 5822 5823 5823 5824 5824 5826 5825 5826 5826 5826 5827 5827
5821 5821 5821 5821 5821 5821 5821 5821 5820 5820 5820 5819 5819 5818 5818 5818 5818 5817 5817 5816 5816 5816 5816 5816 5816 5816 5816 5817 5817 5818 5818 5818 5819 5819 5820 5821 5821 5822 5822 5822 5823 5823 5823
5817 5817 5817 5817 5818 5818 5817 5817 5817 5816 5816 5815 5815 5814 5814 5814 5813 5813 5812 5812 5811 5811 5811 5811 5810 5811 5811 5812 5812 5813 5813 5814 5814 5815 5816 5817 5817 5818 5818 5819 5819 5819 5820
5814 5814 5814 5814 5814 5814 5814 5814 5813 5812 5812 5811 5811 5810 5810 5809 5809 5808 5808 5808 5807 5806 5806 5805 5805 5805 5805 5806 5806 5807 5808 5809 5809 5810 5811 5812 5813 5813 5814 5815 5815 5816 5816
5810 5810 5810 5810 5811 5811 5810 5810 5809 5809 5808 5808 5807 5806 5806 5805 5804 5804 5803 5802 5801 5801 5800 5800 5799 5799 5800 5800 5801 5801 5802 5803 5804 5805 5806 5807 5808 5809 5809 5810 5811 5812 5812
5807 5807 5807 5807 5807 5807 5807 5806 5805 5805 5804 5803 5803 5802 5802 5801 5799 5798 5798 5796 5795 5795 5794 5794 5794 5794 5794 5794 5795 5796 5797 5798 5799 5800 5801 5802 5803 5804 5805 5806 5806 5807 5808
5804 5804 5804 5803 5804 5803 5803 5802 5801 5801 5800 5799 5798 5797 5797 5796 5795 5793 5792 5791 5790 5790 5789 5788 5788 5788 5788 5789 5789 5790 5791 5793 5794 5795 5796 5797 5798 5799 5800 5801 5802 5803 5803
5801 5800 5800 5800 5800 5799 5799 5798 5797 5796 5795 5794 5793 5792 5791 5790 5789 5788 5787 5786 5785 5784 5783 5783 5783 5783 5783 5783 5784 5785 5786 5787 5789 5790 5791 5792 5793 5794 5795 5796 5797 5798 5799
5797 5797 5796 5796 5796 5795 5795 5794 5793 5792 5791 5790 5788 5787 5786 5785 5784 5782 5781 5780 5779 5778 5778 5777 5777 5777 5777 5778 5778 5779 5781 5782 5783 5784 5786 5786 5787 5788 5789 5790 5791 5792 5793
5794 5793 5793 5792 5791 5791 5790 5789 5788 5787 5786 5784 5783 5781 5780 5779 5777 5776 5775 5775 5774 5773 5773 5772 5772 5772 5772 5773 5773 5774 5775 5777 5778 5779 5780 5781 5782 5783 5784 5785 5785 5786 5787
5790 5789 5788 5788 5787 5786 5785 5784 5783 5782 5780 5779 5778 5776 5774 5773 5771 5770 5769 5768 5768 5767 5767 5767 5767 5767 5767 5768 5768 5769 5770 5771 5772 5774 5775 5776 5776 5777 5778 5779 5779 5780 5781
5785 5785 5784 5783 5782 5781 5780 5779 5778 5776 5775 5774 5772 5770 5768 5767 5765 5764 5763 5762 5762 5762 5762 5762 5762 5762 5762 5763 5763 5764 5765 5766 5767 5768 5769 5770 5771 5771 5772 5772 5773 5774 5775
5781 5780 5779 5778 5777 5776 5775 5774 5772 5771 5769 5768 5766 5764 5762 5761 5759 5758 5758 5757 5757 5756 5756 5756 5757 5757 5757 5757 5758 5759 5760 5761 5761 5762 5763 5764 5764 5765 5765 5766 5767 5767 5768
5776 5775 5774 5773 5772 5770 5769 5768 5766 5765 5763 5761 5760 5758 5757 5755 5754 5753 5752 5752 5751 5751 5751 5751 5752 5752 5752 5752 5752 5753 5754 5755 5755 5756 5756 5757 5758 5758 5758 5759 5760 5761 5761
5771 5770 5768 5767 5766 5764 5763 5762 5760 5758 5757 5755 5754 5752 5751 5750 5749 5748 5747 5747 5746 5746 5746 5746 5746 5746 5746 5746 5747 5747 5748 5748 5749 5749 5750 5750 5751 5751 5751 5752 5752 5753 5754
5766 5764 5763 5761 5760 5758 5756 5755 5753 5752 5750 5749 5747 5746 5745 5744 5743 5742 5742 5741 5741 5741 5740 5740 5740 5740 5740 5740 5740 5741 5741 5742 5742 5743 5743 5743 5744 5744 5744 5744 5745 5745 5746
5760 5758 5756 5755 5753 5751 5750 5748 5747 5745 5744 5742 5741 5740 5739 5738 5737 5736 5736 5735 5735 5735 5735 5734 5734 5734 5734 5734 5734 5734 5734 5735 5735 5735 5736 5736 5736 5736 5737 5737 5737 5737 5738
5753 5751 5750 5748 5747 5745 5743 5742 5740 5738 5737 5736 5734 5733 5732 5731 5730 5729 5729 5729 5728 5728 5728 5727 5727 5727 5726 5726 5726 5726 5727 5727 5727 5728 5728 5728 5728 5728 5728 5728 5729 5729 5729
5746 5745 5743 5741 5740 5738 5736 5734 5733 5731 5730 5728 5727 5726 5725 5724 5723 5722 5722 5721 5721 5721 5721 5720 5719 5719 5719 5719 5718 5718 5719 5719 5720 5720 5720 5719 5719 5719 5719 5719 5719 5720 5720
5738 5737 5736 5734 5732 5731 5729 5727 5726 5724 5723 5721 5720 5719 5718 5717 5716 5715 5714 5714 5714 5713 5713 5712 5712 5711 5711 5711 5710 5710 5710 5710 5711 5711 5711 5710 5710 5710 5709 5709 5710 5710 5710
5731 5729 5728 5727 5725 5723 5721 5720 5719 5717 5715 5714 5713 5711 5710 5709 5708 5707 5706 5706 5705 5705 5705 5704 5704 5703 5702 5702 5702 5701 5701 5701 5701 5701 5701 5700 5700 5699 5699 5699 5699 5699 5700
5723 5722 5720 5719 5718 5716 5714 5712 5711 5709 5708 5706 5705 5703 5702 5701 5699 5698 5698 5697 5696 5696 5695 5695 5695 5694 5694 5693 5692 5692 5692 5691 5691 5691 5691 5690 5690 5689 5689 5689 5689 5689 5689
5715 5714 5712 5711 5710 5708 5706 5704 5703 5701 5699 5698 5697 5695 5694 5692 5691 5690 5689 5688 5687 5686 5686 5686 5685 5685 5684 5684 5683 5682 5681 5681 5680 5680 5680 5680 5679 5679 5679 5679 5679 5678 5678
5707 5706 5704 5703 5701 5700 5698 5696 5694 5692 5691 5690 5688 5687 5686 5684 5683 5681 5680 5679 5678 5677 5677 5676 5676 5675 5675 5674 5673 5672 5671 5670 5669 5669 5669 5669 5669 5669 5669 5669 5668 5668 5668
5700 5698 5696 5695 5693 5691 5690 5688 5686 5684 5683 5681 5680 5679 5677 5676 5674 5673 5672 5670 5669 5668 5667 5666 5665 5665 5664 5663 5663 5662 5661 5659 5659 5658 5658 5658 5658 5658 5658 5658 5658 5657 5657